Weather in Hassi Messaoud

Algeria     31°43′52″N   6°03′10″E
temp.,
°C
wind,
m/s
gust,
m/s
humid.,
%
clouds,
%
prec.,
mm/h
press.,
hPa
HPBL,
m
23 june, wed
wed2301:00+37s57945 0.0 100775
04:00+36sse6101090 0.0 1007121
07:00+36sse51210100 0.0 1009282
10:00+41s1014880 0.0 10101489
13:00+46ssw99691 0.0 10095184
16:00+46sse78692 0.0 10075620
19:00+44sse5861 0.0 1007128
22:00+38se221040 0.0 100925
24 june, thu
thu2401:00+37ene67114 0.0 100966
04:00+34ene57170 0.0 100972
07:00+34ese34142 0.0 101190
10:00+40sse5790 0.0 1012954
13:00+45sse4674 0.0 10105072
16:00+46se5564 0.0 10095262
19:00+44sse6875 0.0 1009152
22:00+39se5890 0.0 101084
25 june, fri
fri2501:00+37sse58101 0.0 101086
04:00+34nnw24125 0.0 101049
07:00+35ene22115 0.0 101227
10:00+40sse45810 0.0 10131003
13:00+45sse3575 0.0 10113701
16:00+46sse34669 0.0 10095594
19:00+43sse3462 0.0 100835
22:00+39se44971 0.0 101023
26 june, sat
sat2601:00+37s45100 0.0 101050
04:00+33ne33122 0.0 101024
07:00+31ene7112810 0.0 1012237
10:00+39ese78125 0.0 1012783
13:00+46s6564 0.0 10103884
16:00+46sse3355 0.0 10085460
19:00+44sse44622 0.0 100846
22:00+39sse5583 0.0 100948
27 june, sun
sun2701:00+37s5680 0.0 100955
04:00+34sse3493 0.0 100854
07:00+33ene341676 0.0 101093
10:00+40ssw2375 0.0 1011828
13:00+44sw46631 0.0 10101720
16:00+46nw44571 0.0 10084401
19:00+43nne34695 0.0 100844
22:00+39ese4484 0.0 101025